Location: Popham
(51.1833°N, 1.2000°W)
Time: 16:50:44
(UTC+00:00)

Daily predictions for brighter satellites

Satellite Brightness Start Highest point End
(mag) Time Altitude Azimuth Time Altitude Azimuth Time Altitude Azimuth
Terra 2.4 21:03:42 10° SE 21:08:15 47° ENE 21:12:49 10° N
USA 267 3.7 21:04:05 10° ENE 21:10:09 39° SE 21:16:11 10° SSW
Cosmos 1455 3.2 21:07:24 10° N 21:10:52 32° ENE 21:14:19 10° SE
Cosmos 2369 Rocket 3.7 21:07:04 10° NW 21:11:53 30° WSW 21:16:42 10° SSW
Meteor 1-24 Rocket 4.1 21:08:00 10° SSE 21:12:58 44° E 21:18:03 10° NNE
Cosmos 2315 Rocket 4.2 21:07:59 10° S 21:14:11 59° E 21:20:23 10° NNE
NOSS 2-1 (C) 4.4 21:11:29 10° NW 21:15:28 49° NE 21:20:54 10° ESE
Spot 2 Rocket 3.6 21:16:19 10° SSE 21:21:24 86° ENE 21:26:33 10° NNW
NOSS 2-1 (D) 4.3 21:21:46 10° NW 21:25:52 56° NE 21:31:30 10° ESE
CZ-4B R/B 2.9 21:23:46 10° N 21:26:25 32° WNW 21:29:02 10° SW
Lacrosse 5 rocket 1.2 21:23:31 10° WNW 21:27:22 83° NNE 21:31:24 10° ESE
Cosmos 1709 Rocket 4.1 21:21:48 10° NNW 21:27:59 83° W 21:34:13 10° S
ARIANE 5 R/B 3.0 21:23:49 10° SE 21:28:11 53° ENE 21:32:32 10° N
SPOT 3 Rocket 4.1 21:24:14 10° S 21:29:19 58° WSW 21:34:30 10° NNW
Cosmos 2074 Rocket 4.5 21:30:03 10° N 21:36:10 49° ENE 21:42:02 11° SSE
ATLAS 2AS CENTAUR R/B 2.9 21:30:49 10° NW 21:38:06 80° NE 21:44:51 10° SE
Cosmos 1624 Rocket 4.2 21:35:14 10° S 21:40:20 54° ESE 21:45:26 10° NNE
Cosmos 1656 4.3 21:36:16 10° NNW 21:41:33 47° NE 21:46:50 10° SE
Cosmos 1190 Rocket 4.3 21:37:06 10° NNW 21:42:25 69° WSW 21:47:39 10° SSE
USA 234 3.3 21:39:38 10° ESE 21:46:13 86° SSW 21:52:50 10° WNW
Cosmos 1833 Rocket 4.5 21:44:41 10° SE 21:47:34 14° E 21:50:27 10° ENE
Cosmos 407 Rocket 4.4 21:44:34 10° NW 21:49:27 42° WSW 21:54:16 10° S
Cosmos 1455 Rocket 3.9 21:45:31 10° NNW 21:49:44 48° W 21:53:54 10° SSW
Cosmos 2154 Rocket 4.5 21:49:27 10° N 21:55:31 49° ENE 22:00:52 13° SE
SPOT 5 3.5 21:52:35 10° S 21:56:56 46° W 22:01:10 10° NNW
Cosmos 1271 Rocket 2.8 21:53:45 10° NNW 21:57:46 82° W 22:01:16 13° S
Cosmos 2056 Rocket 3.6 21:54:38 10° SSW 22:00:00 77° ESE 22:05:27 10° NNE
Meteor 2-5 Rocket 4.0 21:56:36 10° SSW 22:02:07 71° WNW 22:07:41 10° N
Cosmos 1025 Rocket 3.6 21:58:52 10° SSW 22:03:04 59° WNW 22:07:20 10° N
Cosmos 2344 4.5 21:58:19 10° NW 22:06:35 63° NE 22:17:49 10° ESE
Cosmos 676 Rocket 4.2 22:03:35 10° NNW 22:08:54 68° WSW 22:13:24 14° S
ERS-1 Rocket 3.8 22:05:01 10° S 22:09:50 45° W 22:14:41 10° NNW
USA 32 4.3 22:05:51 10° SSW 22:11:03 68° W 22:16:17 10° N
Cosmos 1420 Rocket 4.0 22:07:02 10° SSW 22:12:16 79° ESE 22:17:35 10° NNE
Cosmos 1607 3.9 22:11:17 10° SSW 22:17:28 71° SE 22:23:38 10° NE
Cosmos 1536 Rocket 3.5 22:13:47 13° S 22:17:33 72° E 22:21:54 10° NNE
CZ-2C R/B 4.2 22:13:36 10° N 22:18:13 64° WNW 22:22:43 10° SSW
Lacrosse 5 1.9 22:18:43 10° WNW 22:23:49 70° SW 22:27:56 16° SE
Cosmos 1606 Rocket 4.0 22:20:15 10° N 22:24:27 49° ENE 22:27:26 18° SE
NOSS 2-1 (E) 4.0 22:20:03 10° NW 22:24:29 72° SW 22:29:25 16° SSE
SAR-Lupe-4 3.6 22:23:14 10° NNE 22:26:48 64° ESE 22:29:20 18° S
Cosmos 2184 Rocket 4.1 22:22:24 10° NNW 22:28:35 80° W 22:33:50 15° S
Cosmos 724 4.4 22:25:19 10° SSW 22:30:57 54° ESE 22:36:35 10° NE
Tiangong 3.3 22:31:53 10° SW 22:32:27 12° SSW 22:32:27 12° SSW
Cosmos 1850 Rocket 4.0 22:29:57 10° NNW 22:35:14 86° ENE 22:39:02 19° SSE
Lacrosse 4 Rocket 4.3 22:33:21 10° W 22:36:26 20° NW 22:39:30 10° NNE
Cosmos 2228 3.0 22:34:00 10° NNW 22:38:17 84° W 22:41:10 20° S
Cosmos 1328 4.5 22:37:11 21° SSE 22:39:29 41° E 22:43:17 10° NNE
Meteor 1-21 Rocket 4.3 22:35:48 17° S 22:40:07 63° E 22:45:42 10° NNE
FALCON 9 DEB 3.0 22:38:21 10° WSW 22:41:38 83° NNW 22:44:55 10° ENE
Cosmos 1703 3.2 22:38:48 17° S 22:41:43 86° W 22:45:36 10° N
SAR-Lupe-1 4.2 22:38:46 10° NNE 22:42:21 75° WNW 22:45:12 15° SSW
Cosmos 1408 4.1 22:43:33 17° ESE 22:44:53 21° E 22:47:34 10° NE
Cosmos 1455 4.1 22:43:08 10° NW 22:46:11 23° W 22:49:15 10° SW
Terra 3.5 22:42:13 10° SSW 22:46:13 26° W 22:50:14 10° NW
Cosmos 1825 4.4 22:46:54 11° ESE 22:48:29 13° E 22:50:17 10° NE
SL-8 R/B 3.7 22:44:34 10° W 22:49:21 64° S 22:54:08 10° ESE
ALOS 2 3.4 22:46:37 17° SE 22:49:38 43° ENE 22:53:48 10° N
Cosmos 1726 Rocket 3.6 22:46:37 10° N 22:50:56 69° E 22:53:36 22° SSE
USA 267 3.3 22:47:02 10° ENE 22:53:37 87° NNW 23:00:11 10° WSW
Cosmos 1980 Rocket 3.0 22:48:32 10° NNW 22:54:02 46° NE 22:59:14 11° ESE
RESURS DK-1 2.3 22:52:22 10° NNW 22:56:32 90° SW 22:59:03 23° SSE
Cosmos 1697 Rocket 2.7 22:52:55 10° NNW 22:58:35 82° ENE 23:02:42 19° SSE
Cosmos 1331 Rocket 4.3 22:57:22 20° S 23:00:51 52° ESE 23:06:01 10° NNE
Cosmos 1452 Rocket 3.5 22:57:19 14° SSW 23:01:56 85° ESE 23:07:14 10° NNE
Lacrosse 5 rocket 2.8 23:02:57 10° W 23:06:03 22° SW 23:07:17 19° SSW
Spot 4 3.8 23:04:25 22° SSE 23:07:30 86° WSW 23:12:20 10° NNW
ASTEX 1 3.5 23:02:54 10° N 23:07:55 77° W 23:11:36 18° SSW
Cosmos 1892 3.6 23:06:34 23° SE 23:08:10 34° E 23:11:36 10° NNE
ERS-2 3.7 23:05:29 10° NE 23:08:16 21° E 23:09:26 18° ESE
USA 276 3.7 23:10:14 18° ESE 23:10:14 18° ESE 23:11:20 10° E
Cosmos 2084 Rocket 4.3 23:05:24 10° NW 23:09:06 42° NE 23:12:55 10° ESE
Cosmos 2084 3.4 23:05:17 10° SW 23:09:06 70° NW 23:13:00 10° NE
ADEOS Rocket 3.6 23:05:35 18° SSE 23:11:02 71° ENE 23:18:35 10° NNW
Meteor 2-1 Rocket 4.4 23:07:47 10° NNW 23:13:14 62° W 23:17:01 20° S
Cosmos 2058 Rocket 3.1 23:09:46 10° N 23:14:10 71° ENE 23:16:43 24° SSE
Cosmos 1110 Rocket 4.0 23:15:12 19° SSW 23:19:03 78° ESE 23:24:23 10° NNE
Cosmos 2181 Rocket 4.3 23:15:18 21° SSE 23:19:18 53° E 23:25:18 10° NNE
GP-B 3.2 23:15:52 10° N 23:20:18 72° W 23:23:05 22° SSW
Cosmos 2360 4.3 23:15:31 10° NNW 23:21:15 74° WSW 23:25:00 22° SSE
Cosmos 2322 Rocket 4.3 23:18:16 10° NNW 23:22:44 23° NE 23:27:12 10° E
Cosmos 1892 Rocket 3.5 23:22:22 24° S 23:25:01 86° ESE 23:29:27 10° NNE
ATLAS 2AS CENTAUR R/B 3.8 23:22:29 10° WNW 23:28:20 29° WSW 23:32:16 17° SSW
USA 234 4.0 23:26:12 20° S 23:29:47 34° SW 23:35:40 10° WNW
Cosmos 1833 Rocket 2.6 23:26:16 18° SSW 23:30:33 78° ESE 23:36:12 10° NNE
BREEZE-M DEB (TANK) 3.6 23:35:55 10° W 23:39:05 73° S 23:50:48 10° E
Okean 1-7 Rocket 3.9 23:39:49 26° SSE 23:42:04 54° E 23:46:27 10° NNE
Cosmos 1626 Rocket 4.0 23:42:03 26° SSE 23:44:10 48° E 23:48:21 10° NNE
Cosmos 2082 Rocket 2.7 23:41:32 23° S 23:44:43 46° ESE 23:50:10 10° NE
Cosmos 1821 Rocket 4.5 23:40:07 10° N 23:46:19 54° ENE 23:50:56 18° SSE
Meteor 1-27 4.2 23:42:11 10° NNW 23:47:49 87° E 23:51:21 23° SSE
Cosmos 1869 3.2 23:45:12 10° N 23:49:04 78° ENE 23:50:55 30° SSE
ATLAS 5 CENTAUR R/B 3.6 23:51:04 10° ESE 23:51:25 10° ESE 23:51:51 10° ESE
Cosmos-2242 3.8 23:50:48 10° N 23:54:53 43° ENE 23:57:29 20° SE
BREEZE-M DEB (TANK) 3.9 23:46:24 10° SW 23:56:02 46° SSE 23:59:20 10° E
